Wind_Speed
23 21 20 19 18 17 16 17 18 18 18 16 14 11 9 8 7 7 6 6 5 4 5 6 7 8 8 8 8 8 8 8 8 8 7 7 7 6 7 7 8 8 8 9 10 10 11 11 11
24 23 22 20 19 17 17 19 20 21 20 17 15 12 10 9 8 7 6 6 6 6 7 7 9 9 9 9 9 9 9 9 9 9 9 9 8 8 8 8 8 8 8 9 9 10 10 10 10
26 24 23 21 18 17 20 21 23 23 21 18 16 14 11 10 9 8 8 8 8 8 7 8 10 10 10 10 10 10 11 11 11 11 10 10 10 10 10 10 9 9 9 9 10 10 10 10 10
26 25 24 21 17 19 22 24 25 25 23 21 18 15 13 11 10 9 9 9 9 10 9 9 10 11 11 11 12 12 12 13 12 12 12 12 12 12 12 12 12 11 11 11 11 11 10 10 10
26 25 23 20 18 22 25 27 27 26 24 22 20 17 14 13 12 10 10 11 10 11 11 11 11 12 13 13 13 14 14 14 14 14 14 14 14 14 14 14 14 14 13 12 12 12 11 10 10
25 24 22 20 20 24 28 29 29 28 26 23 22 19 16 15 14 13 12 12 12 12 13 13 13 13 14 14 14 15 15 15 15 16 16 16 15 15 16 16 16 15 15 14 13 13 12 11 11
24 23 22 21 23 26 30 31 30 29 27 25 22 20 18 16 15 15 15 14 14 14 15 14 14 15 16 16 16 17 17 17 17 17 17 17 17 18 18 18 17 17 16 16 15 14 13 12 12
23 23 22 22 25 29 31 32 31 30 28 26 23 21 20 19 18 18 18 17 16 16 16 16 16 16 17 17 17 18 18 18 18 19 19 19 19 19 19 20 19 19 18 17 16 16 15 14 14
22 22 21 23 27 30 32 32 32 31 29 27 25 23 22 21 21 20 20 19 19 18 18 18 18 17 17 17 17 18 19 20 20 20 21 21 21 21 21 21 21 21 20 19 18 17 16 16 15
21 20 22 25 28 31 32 32 32 31 30 28 26 25 23 22 22 22 21 21 21 20 19 20 19 18 18 18 19 20 20 20 21 22 22 22 22 22 22 21 22 22 21 21 20 19 19 17 17
20 20 24 26 29 31 32 33 32 32 31 29 27 26 25 24 23 23 22 22 22 21 20 20 20 19 18 19 20 21 22 22 22 23 23 24 23 23 23 22 22 22 22 22 22 21 20 19 19
19 21 24 26 29 30 32 32 32 32 31 30 29 27 26 25 24 24 24 24 24 23 22 22 22 21 21 22 23 23 24 24 23 24 24 24 24 24 24 24 24 24 24 24 24 23 22 21 21
18 20 22 25 28 30 31 31 31 31 31 31 30 28 27 26 25 24 24 24 24 23 23 23 23 23 24 24 25 25 25 25 25 26 25 26 27 26 26 26 25 26 25 26 25 25 25 24 23
17 19 21 23 25 28 30 30 30 30 30 30 29 28 27 27 26 25 25 25 25 25 25 24 23 23 23 24 25 25 24 26 28 28 28 28 28 27 26 26 26 26 26 26 27 26 25 24 23
16 17 18 21 23 25 27 28 28 29 29 29 28 27 27 27 26 27 27 27 27 26 25 25 24 24 24 23 24 24 26 27 28 29 30 30 29 27 27 27 26 26 26 27 27 26 25 24 24
15 17 18 20 22 24 25 26 27 28 28 28 27 27 26 27 27 28 28 29 29 28 27 26 26 26 25 26 26 26 27 28 28 29 29 29 28 28 28 28 28 27 27 26 26 26 25 25 25
16 17 18 20 21 23 24 24 25 26 27 27 27 27 27 27 28 28 29 30 30 30 29 28 26 26 26 27 27 27 26 26 26 26 27 27 27 28 28 29 29 27 26 26 26 26 24 24 24
16 17 18 19 20 21 22 22 23 24 25 25 25 25 26 26 27 28 28 28 28 29 29 28 28 27 27 27 27 27 26 25 24 24 24 25 26 26 26 28 28 27 25 26 26 26 25 24 25
16 16 16 18 19 19 19 20 20 21 22 22 23 23 24 24 25 26 26 26 27 27 28 28 27 28 28 28 27 26 26 26 24 22 23 24 23 22 22 24 25 26 26 25 25 25 25 25 25
16 15 15 17 18 18 18 19 19 19 19 20 21 22 23 23 24 24 25 26 27 27 27 27 27 27 28 28 28 27 26 26 25 25 24 23 22 21 21 22 24 25 25 25 25 26 27 27 26
15 15 15 16 17 18 18 17 17 17 18 19 21 21 22 23 23 24 25 26 26 27 27 27 27 28 28 28 29 29 28 28 27 25 25 24 24 23 23 23 23 24 25 25 24 26 27 27 28
14 15 16 17 17 16 16 16 16 18 19 20 21 20 21 22 23 23 24 25 25 26 27 27 26 27 27 28 28 28 28 27 26 25 25 25 24 23 23 23 23 23 23 23 24 25 26 27 27
14 15 16 17 16 16 16 17 16 18 19 20 21 21 21 22 22 23 24 25 25 26 26 26 26 26 27 28 28 28 28 27 27 26 25 25 24 23 23 23 22 22 23 24 24 24 25 26 27
15 15 16 16 15 15 16 17 16 17 17 19 20 21 22 23 24 23 24 24 24 24 24 25 25 25 26 26 27 27 27 27 27 26 25 24 24 23 23 23 22 21 22 23 23 24 24 24 26
14 14 15 15 14 15 15 16 16 16 17 18 20 21 22 22 21 22 22 21 22 22 23 24 24 25 25 26 26 26 26 26 26 26 26 25 25 24 23 23 23 22 22 22 22 22 22 23 24
13 13 14 14 14 14 15 16 16 16 17 17 17 18 19 19 19 20 20 21 21 21 22 22 23 25 25 26 26 26 26 25 25 25 25 25 25 25 24 24 24 23 23 23 22 21 22 23 24
14 14 14 14 14 14 14 15 14 15 15 16 16 17 18 18 19 18 19 20 20 21 22 23 23 24 24 25 25 25 25 24 25 24 25 26 26 25 25 25 24 24 23 23 23 23 23 23 24
15 14 14 15 16 15 14 14 14 15 16 16 17 17 18 18 19 19 19 20 21 21 22 23 24 24 24 25 25 24 24 23 24 25 26 25 26 26 26 26 25 24 24 24 25 25 25 25 25
15 15 15 15 16 16 15 15 15 16 16 17 17 17 18 19 20 20 20 21 22 22 22 22 23 23 23 23 23 23 23 23 24 24 25 25 26 27 27 26 26 25 26 26 25 25 25 26 26
15 15 15 16 16 16 16 15 16 17 17 18 18 18 19 20 20 20 21 21 21 22 22 22 22 22 22 22 22 23 23 23 24 24 24 24 24 24 25 25 25 26 26 27 27 26 26 27 27
Wind_Direction
252 251 248 244 240 237 232 230 230 232 234 238 240 247 262 279 292 305 308 306 299 278 260 250 244 243 241 239 237 236 237 238 238 238 245 253 261 273 285 293 301 307 313 320 323 325 327 329 329
250 248 246 242 238 232 226 226 225 230 235 237 237 242 254 268 278 291 295 295 290 278 268 257 248 242 239 238 239 240 241 244 244 245 247 251 257 264 273 280 287 293 301 309 314 317 319 322 323
248 246 244 241 235 227 221 222 225 230 233 234 234 240 246 261 270 278 283 289 287 280 268 259 251 244 240 240 241 243 246 247 249 250 252 253 256 260 267 274 280 285 289 297 302 307 311 314 314
247 245 243 239 227 218 219 221 225 229 232 233 235 239 246 256 269 277 281 286 283 277 266 258 254 250 246 244 243 244 247 248 250 252 253 255 258 260 265 269 274 279 282 288 293 297 301 303 304
245 244 242 236 220 216 217 222 226 229 233 236 240 243 247 256 266 274 283 285 281 275 267 257 252 251 250 249 247 247 247 248 249 251 252 254 257 260 263 267 270 274 278 282 286 288 292 293 293
244 242 239 230 217 216 217 222 226 230 234 239 244 245 250 259 267 275 284 286 283 278 274 265 258 254 251 250 249 249 248 249 250 251 253 254 257 261 263 265 269 271 274 277 279 281 284 285 284
242 239 235 226 217 215 218 224 227 231 237 241 245 249 254 261 268 275 282 284 283 280 274 268 263 259 255 253 251 251 249 249 251 253 254 255 258 261 263 264 267 269 271 273 275 276 277 278 278
240 237 232 224 216 216 219 225 230 233 237 241 245 248 255 262 268 274 278 282 283 281 276 271 266 262 259 256 255 253 249 248 250 252 254 256 258 261 263 263 265 267 268 270 272 273 272 272 272
239 235 229 221 215 218 221 225 230 234 237 240 245 249 254 261 268 272 275 279 281 282 280 277 271 266 262 258 258 256 251 249 250 252 255 255 257 260 261 262 264 265 265 266 268 268 268 268 268
238 233 226 220 217 219 223 227 231 234 237 241 246 250 256 263 267 270 273 277 279 281 279 276 273 268 265 262 263 260 255 252 252 253 254 256 258 259 260 261 263 263 263 264 265 265 264 264 265
234 228 225 220 219 221 224 229 233 236 240 243 246 251 256 261 265 268 272 274 275 277 277 273 271 268 264 266 267 265 256 253 256 258 255 257 258 258 258 259 261 263 263 263 264 263 262 261 263
231 226 225 223 222 223 226 231 234 239 243 245 248 251 256 260 264 268 272 275 275 274 276 274 273 271 268 265 265 265 262 257 259 260 257 256 258 259 258 258 262 263 264 265 264 263 262 260 260
229 227 227 226 226 226 229 232 237 241 245 249 252 254 256 259 264 270 273 275 275 275 274 274 272 273 269 265 264 268 266 262 262 259 259 258 260 261 259 259 260 263 265 264 264 265 263 260 260
230 229 229 229 231 231 232 235 239 242 247 251 255 257 260 262 265 270 273 274 274 274 273 274 270 272 272 265 266 267 264 263 260 260 260 259 261 263 259 260 262 263 265 265 262 263 263 261 259
231 229 229 233 235 236 236 237 240 245 248 252 255 259 262 265 268 270 273 274 274 274 274 273 271 272 272 267 267 267 265 265 263 261 262 261 262 262 260 260 264 264 264 264 263 261 261 263 263
231 228 230 234 237 239 241 241 242 246 249 252 256 259 262 266 269 271 272 273 274 274 274 273 272 271 270 269 270 270 268 268 265 262 263 261 261 260 259 260 263 263 262 262 262 260 261 263 262
230 229 231 235 239 242 243 243 243 247 251 255 257 260 264 266 268 271 273 272 272 272 272 271 271 271 271 272 271 270 269 271 270 265 263 264 261 259 259 259 260 259 258 258 261 260 258 258 257
229 230 232 236 240 242 243 245 247 250 254 258 261 265 268 268 268 271 272 272 271 271 271 271 271 272 272 272 272 272 271 273 273 270 267 268 265 261 259 257 255 255 255 255 258 258 256 254 254
229 230 232 236 241 244 247 250 252 256 258 260 263 266 271 271 270 271 272 273 273 273 272 272 272 272 272 272 271 270 270 270 271 272 271 271 268 266 259 254 253 253 254 255 256 258 253 252 251
230 230 231 237 243 247 251 255 258 260 261 265 268 270 274 275 276 275 275 275 275 274 273 273 272 272 272 271 269 268 270 271 273 270 269 273 274 272 267 260 256 257 256 255 254 254 252 251 250
232 229 232 239 245 250 256 259 260 264 268 271 274 275 276 277 278 278 277 276 275 275 274 274 274 273 272 270 269 268 268 270 272 269 268 270 271 273 269 265 262 260 260 258 255 253 250 251 250
233 233 235 243 250 254 260 263 266 270 271 274 277 278 279 278 279 279 278 278 277 275 274 273 273 273 272 271 269 269 269 269 267 267 266 266 266 266 266 263 261 261 260 259 256 250 249 251 249
238 239 241 246 251 256 263 269 274 279 278 279 280 281 282 280 280 278 278 278 276 273 272 272 272 273 273 272 270 269 270 269 267 266 263 263 262 263 262 261 261 260 260 260 257 252 251 250 246
240 242 245 248 253 260 268 273 281 286 284 282 285 285 284 284 283 280 279 279 276 275 274 273 272 274 273 272 272 271 269 267 267 266 264 265 263 262 261 262 261 262 262 261 258 256 254 252 246
244 246 249 253 260 268 274 278 288 289 288 286 288 287 288 288 284 282 280 280 279 275 275 275 273 272 272 273 272 272 270 268 266 265 265 264 263 262 262 260 261 263 263 261 261 259 258 255 252
247 252 258 264 269 273 277 283 291 291 291 291 292 292 290 291 290 288 283 283 283 279 276 275 273 272 272 272 271 270 268 265 263 262 262 262 261 259 259 260 261 262 261 259 259 259 256 256 255
252 257 262 269 275 278 280 285 289 290 293 292 293 292 292 292 293 291 287 286 285 281 277 276 276 274 273 272 271 270 266 264 261 258 258 258 256 255 256 258 260 260 260 259 257 257 256 256 254
254 260 264 271 280 281 283 288 292 293 296 295 294 293 294 293 292 292 290 289 286 283 281 278 277 275 273 273 271 269 265 262 259 257 256 256 255 253 254 256 259 259 258 257 257 256 255 255 256
256 261 266 274 281 286 287 293 299 299 298 299 295 293 294 294 292 292 291 289 286 284 282 279 277 276 274 271 268 266 263 261 259 257 256 256 257 255 254 254 255 256 255 256 256 257 256 257 259
260 265 270 275 281 285 291 300 301 301 301 299 295 293 295 297 296 295 293 291 288 285 282 278 275 273 272 271 268 265 263 262 260 259 258 259 259 259 257 256 255 255 257 258 258 259 259 260 260
Height
5860 5862 5864 5866 5868 5870 5870 5871 5871 5871 5872 5873 5875 5876 5878 5879 5881 5883 5882 5880 5880 5881 5881 5882 5883 5884 5885 5885 5886 5887 5888 5890 5892 5893 5894 5895 5897 5898 5898 5899 5900 5900 5900 5901 5901 5900 5900 5900 5899
5857 5859 5861 5863 5865 5867 5868 5868 5868 5868 5870 5871 5873 5874 5875 5876 5877 5878 5878 5878 5879 5879 5880 5880 5881 5882 5883 5884 5885 5885 5887 5888 5889 5891 5892 5894 5895 5896 5897 5898 5898 5899 5899 5899 5899 5899 5899 5899 5898
5853 5855 5858 5860 5862 5864 5864 5864 5865 5865 5867 5869 5870 5872 5873 5874 5875 5876 5876 5876 5877 5878 5878 5879 5880 5880 5881 5882 5883 5884 5885 5886 5887 5889 5890 5891 5892 5894 5895 5895 5896 5897 5897 5897 5898 5898 5898 5897 5897
5850 5852 5854 5858 5860 5860 5860 5861 5861 5863 5864 5866 5868 5869 5871 5872 5873 5874 5874 5875 5875 5876 5876 5877 5878 5878 5879 5880 5880 5881 5882 5884 5885 5886 5887 5889 5890 5891 5892 5893 5894 5894 5895 5895 5896 5896 5896 5896 5896
5846 5848 5851 5854 5856 5856 5857 5857 5858 5860 5862 5864 5865 5867 5868 5870 5870 5871 5872 5873 5873 5874 5874 5875 5875 5876 5877 5877 5878 5879 5880 5881 5882 5883 5884 5886 5887 5888 5889 5890 5891 5891 5892 5893 5893 5894 5894 5894 5894
5842 5845 5848 5850 5852 5853 5853 5853 5855 5857 5859 5861 5863 5865 5866 5867 5868 5869 5870 5870 5871 5871 5872 5872 5873 5873 5874 5875 5875 5876 5877 5878 5879 5880 5881 5883 5884 5885 5886 5887 5887 5888 5889 5890 5890 5891 5892 5892 5892
5839 5841 5843 5846 5848 5848 5849 5850 5852 5854 5856 5859 5861 5862 5864 5864 5865 5866 5867 5868 5868 5869 5869 5870 5870 5870 5871 5871 5872 5873 5874 5875 5876 5877 5878 5879 5880 5881 5882 5883 5884 5885 5886 5886 5887 5888 5889 5889 5889
5835 5838 5839 5842 5843 5844 5846 5847 5849 5851 5853 5856 5858 5859 5861 5862 5862 5863 5864 5864 5865 5866 5866 5866 5867 5867 5867 5868 5869 5870 5870 5871 5873 5874 5875 5876 5877 5878 5879 5880 5881 5881 5882 5883 5884 5884 5885 5886 5887
5831 5835 5835 5837 5839 5840 5842 5844 5846 5848 5850 5852 5854 5856 5857 5858 5859 5860 5860 5861 5862 5863 5863 5863 5863 5864 5864 5865 5866 5866 5867 5868 5869 5870 5871 5872 5873 5874 5875 5876 5877 5878 5879 5879 5880 5881 5882 5883 5884
5827 5830 5831 5833 5835 5836 5838 5840 5842 5845 5846 5849 5850 5852 5853 5854 5855 5856 5857 5858 5859 5859 5859 5859 5860 5860 5860 5861 5862 5863 5864 5865 5866 5866 5867 5868 5869 5870 5871 5872 5873 5873 5874 5875 5876 5877 5878 5879 5880
5823 5825 5827 5829 5831 5833 5835 5837 5839 5841 5843 5845 5846 5848 5849 5850 5851 5852 5853 5854 5855 5855 5855 5856 5856 5856 5857 5857 5858 5859 5859 5861 5862 5862 5862 5863 5864 5865 5867 5867 5868 5869 5870 5871 5872 5872 5874 5875 5876
5820 5821 5823 5825 5827 5830 5832 5834 5836 5838 5840 5842 5842 5843 5845 5847 5847 5848 5849 5850 5851 5851 5851 5852 5852 5852 5853 5853 5853 5854 5854 5856 5856 5857 5858 5859 5860 5861 5862 5863 5863 5864 5865 5866 5867 5868 5869 5870 5871
5817 5818 5820 5822 5824 5827 5829 5831 5833 5834 5836 5838 5839 5840 5841 5842 5843 5844 5844 5845 5846 5847 5847 5847 5847 5847 5847 5847 5847 5849 5850 5850 5851 5852 5853 5853 5855 5856 5857 5858 5858 5859 5859 5860 5862 5863 5863 5865 5866
5814 5816 5818 5820 5821 5823 5826 5828 5830 5831 5833 5834 5835 5836 5836 5837 5838 5839 5839 5840 5841 5841 5842 5841 5841 5842 5842 5842 5843 5843 5844 5845 5846 5847 5847 5848 5849 5850 5852 5853 5853 5854 5854 5855 5856 5857 5858 5859 5860
5812 5814 5815 5817 5818 5820 5822 5825 5827 5827 5829 5830 5830 5831 5832 5833 5833 5834 5834 5834 5835 5836 5837 5837 5837 5837 5837 5837 5838 5838 5839 5840 5840 5840 5841 5841 5842 5843 5845 5846 5847 5848 5848 5849 5850 5851 5852 5854 5855
5809 5811 5812 5813 5815 5816 5820 5822 5823 5823 5824 5825 5826 5826 5827 5827 5828 5828 5829 5829 5829 5830 5831 5832 5832 5832 5831 5831 5832 5833 5833 5833 5833 5834 5834 5835 5835 5836 5838 5840 5841 5842 5842 5843 5844 5846 5847 5848 5849
5806 5808 5809 5811 5812 5813 5815 5817 5818 5819 5820 5820 5821 5822 5822 5822 5822 5823 5823 5823 5824 5824 5825 5826 5826 5826 5826 5826 5826 5827 5827 5827 5827 5827 5827 5828 5829 5830 5831 5833 5835 5836 5836 5837 5838 5840 5841 5842 5843
5803 5804 5806 5808 5809 5810 5811 5813 5814 5814 5815 5816 5816 5817 5817 5817 5817 5817 5817 5818 5818 5818 5819 5820 5820 5821 5821 5821 5821 5821 5821 5822 5822 5821 5822 5823 5823 5824 5825 5826 5828 5829 5831 5831 5832 5833 5834 5836 5837
5800 5802 5804 5805 5806 5807 5808 5809 5810 5810 5811 5811 5812 5812 5812 5812 5812 5812 5812 5812 5812 5813 5813 5813 5814 5814 5814 5815 5815 5815 5815 5816 5816 5816 5817 5818 5818 5818 5819 5820 5822 5823 5825 5825 5826 5827 5828 5829 5831
5798 5800 5801 5802 5803 5804 5804 5805 5806 5806 5806 5807 5807 5807 5807 5806 5806 5806 5806 5806 5806 5806 5807 5807 5807 5808 5808 5809 5809 5809 5810 5810 5811 5812 5812 5812 5812 5813 5814 5814 5816 5817 5818 5819 5820 5821 5822 5823 5825
5796 5798 5799 5800 5800 5800 5801 5802 5802 5803 5803 5803 5803 5802 5802 5801 5801 5800 5800 5800 5800 5800 5800 5801 5801 5801 5801 5802 5803 5803 5804 5805 5805 5806 5806 5806 5807 5807 5808 5809 5810 5811 5812 5813 5814 5814 5816 5817 5818
5794 5795 5796 5797 5797 5797 5798 5798 5799 5799 5799 5798 5798 5797 5797 5796 5795 5794 5794 5794 5794 5794 5794 5794 5794 5794 5795 5795 5796 5797 5797 5798 5798 5799 5799 5800 5800 5801 5802 5803 5803 5804 5806 5807 5807 5808 5809 5811 5812
5791 5792 5793 5794 5794 5795 5795 5795 5796 5795 5794 5794 5793 5793 5792 5791 5790 5789 5788 5788 5787 5788 5788 5788 5788 5788 5788 5789 5789 5790 5790 5791 5791 5792 5793 5794 5794 5795 5796 5797 5797 5798 5800 5801 5802 5802 5804 5804 5806
5789 5790 5791 5791 5792 5792 5792 5792 5792 5791 5790 5789 5788 5788 5787 5786 5784 5783 5783 5782 5782 5781 5781 5782 5782 5782 5782 5782 5782 5782 5783 5784 5784 5785 5786 5787 5788 5789 5790 5790 5791 5792 5793 5794 5796 5797 5798 5799 5801
5787 5789 5789 5789 5789 5790 5789 5789 5790 5788 5787 5785 5784 5783 5781 5780 5779 5778 5777 5777 5776 5775 5775 5775 5775 5775 5775 5775 5775 5775 5776 5777 5777 5779 5779 5780 5781 5783 5783 5784 5785 5786 5787 5788 5789 5791 5792 5793 5795
5785 5786 5787 5787 5787 5787 5786 5785 5787 5785 5783 5781 5780 5778 5777 5775 5774 5772 5771 5771 5770 5769 5769 5769 5768 5768 5768 5768 5768 5769 5769 5770 5771 5771 5772 5774 5775 5776 5777 5778 5779 5780 5781 5782 5784 5785 5786 5787 5788
5782 5783 5784 5784 5783 5784 5783 5783 5783 5781 5779 5778 5776 5774 5773 5771 5769 5767 5767 5766 5765 5764 5763 5763 5762 5762 5761 5761 5762 5762 5762 5763 5763 5765 5766 5767 5768 5769 5770 5772 5773 5774 5775 5777 5778 5778 5780 5781 5782
5780 5781 5781 5781 5780 5780 5780 5780 5779 5777 5776 5774 5772 5770 5769 5767 5765 5763 5762 5761 5759 5758 5758 5757 5756 5756 5756 5755 5755 5755 5756 5756 5757 5758 5759 5760 5761 5762 5763 5765 5766 5767 5769 5770 5771 5772 5773 5774 5775
5777 5778 5777 5777 5777 5777 5776 5779 5776 5774 5772 5771 5769 5767 5765 5763 5760 5759 5757 5755 5754 5753 5752 5751 5750 5750 5749 5749 5749 5749 5749 5750 5750 5751 5752 5753 5754 5755 5756 5757 5759 5760 5762 5763 5764 5765 5766 5767 5768
5774 5774 5775 5775 5774 5773 5773 5776 5772 5770 5768 5766 5764 5762 5760 5758 5755 5753 5752 5750 5748 5747 5746 5745 5744 5744 5743 5743 5743 5743 5743 5744 5744 5745 5746 5747 5747 5748 5749 5750 5752 5753 5754 5756 5757 5758 5759 5760 5761